Tracking 25195 objects as of 20-Jan-2022
HD Live streaming from Space Station
objects crossing your sky now

STARLINK-3297

Track STARLINK-3297 now!
10-day predictions
STARLINK-3297 is classified as:


NORAD ID: 50159
Int'l Code: 2021-125D
Perigee: 375.5 km
Apogee: 377.2 km
Inclination: 53.2 °
Period: 91.9 minutes
Semi major axis: 6747 km
RCS: Unknown
Launch date: December 18, 2021
Source: United States (US)
Launch site: AIR FORCE WESTERN TEST RANGE (AFWTR)
aabbcc
Your satellite tracking list
Your tracking list is empty




NASA's NSSDC Master Catalog

Two Line Element Set (TLE):
1 50159U 21125D   22020.58334491 -.00526946  00000-0 -53001-2 0  9999
2 50159  53.2175 202.1213 0001304  76.9314 160.0163 15.66405779  3677
Source of the keplerian elements: AFSPC